Wind_Speed
66 66 66 66 67 68 70 72 74 76 78 81 82 83 83 82 79 76 73 70 68 68 71 73 73 72 69 66 65 65 65 65 65 65 64 64 62 61 61 61 61 61 59 58 58 58 57 56 55 53 52 51 51 50 49 49 49 50 50 50 51 51 52 51 51 51 50 50 49 47 46 45 45 44 42 40 38 35 31 29 26 24 25 24 25 26
65 63 64 65 67 68 69 71 73 74 76 79 81 82 82 81 79 76 73 69 68 71 73 74 73 71 68 65 65 64 64 64 64 63 62 61 61 61 61 60 59 57 56 56 56 57 57 56 54 53 52 50 49 48 47 47 46 45 45 43 42 43 45 44 44 45 45 45 45 44 44 43 42 41 39 37 35 31 26 24 23 23 27 28 28 28
62 61 62 64 66 67 69 70 70 72 74 76 78 79 79 79 78 76 74 70 70 72 74 74 73 70 67 65 65 64 64 63 62 61 61 60 60 59 58 56 56 55 54 55 55 56 56 56 54 52 51 48 46 43 40 38 37 36 34 28 26 33 38 38 36 36 38 38 39 39 40 40 39 37 35 33 30 28 26 25 23 23 27 29 31 29
61 60 60 62 65 67 68 68 67 68 70 72 74 76 77 77 77 76 74 71 71 73 75 74 72 68 66 65 64 63 62 61 60 60 59 59 57 55 54 54 55 54 54 55 55 55 56 55 54 51 48 44 39 32 27 27 27 28 28 25 31 39 42 40 36 33 33 33 33 35 35 35 36 34 32 29 24 25 28 27 25 26 28 30 33 32
60 60 61 63 65 66 67 65 64 64 66 68 71 73 75 76 75 75 74 72 72 74 75 73 70 67 65 64 63 62 60 58 58 57 56 55 54 53 53 54 54 53 54 54 55 54 54 53 51 48 43 36 25 18 18 21 24 33 40 43 47 46 43 42 39 34 32 32 31 32 32 32 33 31 29 25 22 26 31 29 28 29 31 31 33 35
60 60 62 64 64 65 64 62 61 62 64 66 69 72 74 74 74 73 72 71 72 73 74 72 69 66 63 62 61 59 56 55 55 53 52 52 52 53 53 53 54 53 53 53 53 52 51 49 47 43 38 28 17 18 22 22 26 39 49 51 51 48 44 43 40 35 34 33 31 31 30 29 29 30 28 24 25 30 32 31 30 32 34 33 33 34
60 61 62 62 63 63 62 60 60 61 63 65 68 71 72 71 71 70 70 70 70 72 72 70 67 64 61 60 57 53 52 53 53 51 50 50 50 52 53 53 53 53 52 50 49 48 47 45 43 38 33 26 21 24 26 29 35 44 47 47 48 49 48 47 45 40 36 34 32 28 24 23 25 28 27 23 25 29 33 34 33 34 36 35 33 33
60 60 60 60 60 60 59 58 59 61 61 62 66 68 68 67 67 67 67 67 68 69 68 66 63 61 59 55 51 49 49 50 51 50 49 49 49 50 52 52 52 51 49 47 45 44 43 41 38 33 28 26 25 26 29 36 45 47 44 42 43 46 48 49 49 46 39 35 32 26 20 20 22 26 26 22 22 26 32 37 36 37 37 35 33 34
60 59 58 58 57 56 56 57 60 60 59 61 65 65 64 64 64 64 65 64 64 64 62 60 58 56 53 49 47 47 47 47 49 50 49 48 48 49 50 50 50 48 45 43 41 40 39 37 34 31 28 27 28 29 33 40 46 47 43 41 40 41 44 47 48 48 43 38 34 28 22 20 20 24 25 22 24 27 33 40 40 39 38 37 35 35
62 59 57 56 55 55 56 59 60 58 58 62 63 62 61 61 61 62 61 60 59 57 55 53 52 51 47 45 46 46 45 46 48 49 48 48 48 48 48 47 45 43 41 40 38 37 36 35 33 31 30 31 31 32 37 42 46 47 44 42 41 38 37 44 48 46 44 41 36 31 26 23 22 25 26 23 29 35 37 42 43 38 37 38 36 36
59 57 55 54 54 56 58 58 57 57 59 60 60 58 58 58 59 59 57 55 53 50 49 48 47 46 44 45 45 44 44 45 47 47 47 47 47 45 44 43 41 40 39 38 37 36 36 35 35 34 33 35 37 37 39 45 48 49 49 46 44 38 35 42 47 46 43 42 38 33 30 27 26 28 28 24 30 37 38 41 42 37 34 36 37 38
54 53 53 53 54 56 55 54 54 55 56 55 54 54 55 56 57 55 53 51 48 46 46 45 44 44 44 45 44 43 43 44 45 45 46 46 44 42 41 39 39 38 38 37 37 38 38 37 37 38 37 37 40 41 42 47 49 50 52 52 48 44 42 44 46 45 44 44 42 35 32 30 29 29 30 27 28 33 36 38 40 37 33 32 35 38
51 51 52 54 55 53 51 51 52 52 51 50 51 52 53 54 53 51 49 46 44 44 44 44 44 44 44 44 43 43 43 43 44 46 46 45 43 41 39 38 38 38 38 39 39 39 39 39 39 40 41 40 41 44 46 49 51 52 55 58 56 51 48 48 47 44 44 44 43 37 33 33 32 32 32 27 25 29 33 36 38 37 35 33 35 37
52 52 52 53 52 51 50 49 49 50 49 49 50 52 52 51 49 48 46 43 42 43 44 44 45 45 44 43 43 43 42 43 45 46 46 44 42 40 39 39 39 39 40 40 41 41 42 42 43 43 43 44 43 45 48 52 55 56 58 61 61 56 51 51 51 47 44 42 41 37 33 33 34 35 32 28 25 26 29 33 36 38 38 36 35 36
52 50 50 50 49 49 49 49 50 51 52 52 53 53 52 50 48 47 46 44 43 45 46 46 46 45 43 43 43 43 43 45 47 46 45 43 41 40 40 40 40 40 41 42 43 44 44 44 44 45 45 46 46 46 49 53 57 61 62 64 64 59 54 53 54 51 45 42 39 35 33 33 35 36 33 28 26 25 25 27 31 35 38 38 36 35
52 50 50 50 49 49 50 51 53 54 55 55 54 53 52 50 49 48 46 45 46 47 48 47 46 45 43 42 42 42 44 47 47 46 44 43 42 41 41 41 41 42 42 44 44 45 45 45 45 46 47 47 48 47 50 54 58 62 66 68 66 64 59 55 55 53 47 44 40 35 34 36 36 37 34 30 29 27 25 24 26 28 31 35 38 38
53 52 53 52 51 51 52 54 55 56 55 54 53 52 52 51 50 48 47 46 47 48 48 47 46 45 43 41 41 43 46 48 48 46 45 44 44 43 43 43 44 44 45 45 46 45 45 45 46 47 48 49 50 50 52 55 58 62 66 70 70 67 62 57 56 54 51 48 42 36 37 39 39 38 36 33 31 32 29 25 26 27 27 31 37 40
53 54 54 53 52 52 54 55 56 56 55 54 54 53 53 51 49 48 47 47 48 48 47 47 45 44 41 40 42 45 48 49 48 47 47 46 46 45 45 46 46 47 47 46 46 46 45 46 47 49 50 51 52 52 54 56 59 61 63 68 71 70 66 59 56 55 53 51 45 38 38 41 41 39 37 34 33 37 37 31 29 29 29 31 34 38
56 55 53 52 51 52 54 55 56 55 54 54 54 53 52 50 48 47 47 46 47 47 46 45 44 42 41 42 44 47 49 50 49 49 50 49 48 47 47 48 48 47 47 47 47 47 47 48 49 50 51 51 52 53 54 55 57 59 60 64 68 71 70 63 57 54 53 53 49 42 40 41 41 40 40 38 36 38 42 38 34 33 32 32 33 37
58 55 52 51 52 53 54 55 55 54 54 53 52 50 49 47 46 46 46 46 46 46 45 45 44 43 44 45 46 48 50 51 50 51 52 50 49 49 49 49 49 48 48 48 48 48 48 49 50 51 52 52 52 52 51 52 53 55 57 59 63 68 71 68 61 55 52 55 53 47 42 41 41 41 41 40 39 39 42 42 39 37 36 35 35 38
58 54 51 51 52 54 54 53 53 53 53 52 50 49 47 46 45 46 47 46 47 46 46 46 45 45 46 46 47 49 51 52 52 53 52 51 51 51 50 50 49 49 49 49 49 49 49 50 51 52 52 52 51 49 48 47 48 49 51 54 57 62 66 68 65 58 53 54 55 50 45 42 42 42 40 39 40 40 42 42 41 41 40 38 36 37
57 53 51 51 53 53 52 52 52 52 51 50 48 48 47 46 47 47 48 48 48 48 48 47 47 47 47 47 48 50 52 53 54 54 52 51 52 52 51 50 50 50 50 50 50 50 50 50 51 51 52 52 49 46 44 44 44 44 45 47 50 55 60 64 67 62 55 54 57 54 48 44 44 44 43 42 41 41 43 43 41 41 41 40 37 36
56 52 51 52 52 51 50 51 51 51 50 48 48 48 47 47 47 48 48 49 49 50 49 48 48 47 47 48 50 51 53 55 54 53 52 53 53 53 51 50 51 51 51 51 51 51 51 51 50 50 51 49 45 43 42 41 40 39 39 40 43 49 54 59 65 65 55 49 54 57 52 48 47 46 46 46 43 41 42 41 39 38 39 40 39 37
55 52 52 51 50 50 50 50 51 50 48 48 49 49 48 48 48 48 49 50 50 50 49 49 48 47 48 50 51 53 54 55 54 54 54 54 53 53 51 51 51 51 51 51 51 51 51 49 48 48 48 45 42 41 40 39 38 36 35 35 38 43 49 54 61 65 57 47 50 57 55 52 50 48 49 50 45 40 39 39 40 39 38 39 40 39
54 52 51 50 49 49 49 50 50 49 48 49 50 50 49 49 49 49 51 51 51 51 50 49 48 48 50 52 52 54 55 55 55 55 55 54 53 53 52 52 52 52 52 51 51 50 49 47 46 46 45 41 39 39 38 38 36 35 33 32 33 38 44 50 57 64 63 54 51 56 57 55 53 50 50 51 48 43 40 38 39 38 37 38 40 40
53 51 50 49 49 49 50 51 51 51 51 52 52 52 52 51 51 51 52 52 52 51 51 50 50 51 52 53 54 55 56 56 56 55 54 53 54 54 54 54 53 52 52 51 50 49 47 46 44 43 42 39 36 37 37 37 36 35 33 31 31 34 40 46 53 61 63 58 55 57 57 57 56 53 51 51 50 47 42 39 38 37 37 39 42 43
51 50 50 50 51 52 54 55 56 56 56 56 56 57 57 55 54 54 54 54 54 53 53 53 53 54 54 55 56 57 57 56 55 54 54 54 55 56 55 55 54 53 51 50 49 47 46 45 43 41 40 37 35 36 37 36 36 35 33 31 30 33 37 43 50 57 59 57 56 57 58 58 58 55 53 52 53 50 45 41 42 41 38 39 42 44
50 50 50 52 53 54 55 56 57 57 57 56 57 58 58 57 56 56 56 56 56 55 55 54 55 55 56 56 57 57 57 56 55 54 55 55 57 58 57 56 55 52 50 49 48 46 45 45 42 40 38 36 34 35 37 36 36 36 34 32 31 32 36 40 45 52 56 55 55 57 59 60 60 58 55 53 53 53 49 44 44 45 41 40 41 42
50 50 51 52 53 54 55 56 57 57 57 56 56 57 57 57 57 56 57 56 56 56 55 55 55 56 56 56 57 57 57 57 56 56 56 57 58 59 58 56 54 51 49 48 47 46 45 44 43 40 37 36 35 36 37 37 37 37 35 33 32 32 34 38 43 48 53 54 56 58 60 61 61 61 58 54 53 54 52 48 46 47 45 42 42 43
51 51 52 53 53 54 55 56 58 59 58 58 58 58 58 58 58 58 58 57 56 56 56 56 57 57 58 58 58 58 58 58 57 57 57 58 60 60 58 56 53 50 48 47 46 45 44 43 43 40 37 36 36 37 39 39 38 38 37 35 34 34 35 37 41 46 51 53 55 57 60 61 62 62 60 56 54 54 54 51 47 48 47 43 42 45
51 51 52 53 53 54 55 56 58 59 59 59 59 59 59 59 59 59 59 58 57 57 58 58 58 58 58 59 58 58 58 58 58 58 58 60 61 60 57 55 51 48 47 46 45 43 42 42 41 39 36 36 38 38 40 41 41 40 40 39 37 36 36 37 41 45 49 52 53 55 58 59 61 62 61 58 56 55 54 51 47 47 48 44 41 44
50 50 51 52 53 53 54 55 56 57 58 59 59 59 59 59 59 59 59 58 58 58 58 58 59 59 59 59 58 58 58 58 59 60 60 61 61 59 56 53 50 47 46 45 44 42 41 40 39 38 36 36 39 40 41 42 43 43 42 42 41 40 38 38 40 43 46 49 51 52 55 57 58 60 60 58 56 56 55 52 49 48 49 49 46 44
50 50 51 52 52 53 53 54 55 57 58 58 58 59 59 59 59 59 59 58 58 58 58 59 59 59 59 59 59 58 58 59 60 61 62 62 61 57 54 51 48 46 45 44 42 41 40 38 37 37 36 36 38 41 43 43 45 46 46 45 45 44 42 41 41 42 44 46 48 50 52 54 55 57 57 56 55 56 56 54 52 51 52 53 50 47
50 50 51 51 52 53 53 54 55 56 57 57 58 58 59 59 60 60 60 60 59 59 59 60 60 60 60 60 60 60 60 61 62 62 62 62 60 56 52 49 47 46 45 43 41 41 39 37 36 36 36 37 38 40 43 44 46 48 49 49 48 48 47 45 44 44 44 44 45 47 49 52 54 55 56 56 55 55 55 54 52 53 55 55 53 50
49 50 51 51 52 52 53 54 56 56 56 57 59 60 61 61 62 61 61 61 61 61 61 61 61 61 61 61 61 62 62 63 63 64 63 62 59 55 51 48 46 45 44 42 41 40 38 36 35 35 36 36 37 39 42 44 46 48 50 51 51 51 50 49 48 48 47 47 46 46 47 50 52 55 56 56 55 55 55 55 53 53 55 58 57 55
50 51 52 53 53 54 54 55 57 57 58 60 62 62 63 63 63 64 63 63 63 63 63 63 63 63 63 63 64 64 65 65 65 64 62 60 57 54 50 47 45 45 44 43 42 40 38 36 35 35 35 36 36 38 40 43 46 48 50 52 53 53 53 53 52 52 51 51 50 48 46 47 49 52 54 56 56 55 55 56 55 54 56 59 60 58
53 54 55 55 56 57 57 59 60 60 61 63 64 64 64 64 65 65 65 65 65 64 64 64 65 65 66 66 67 67 67 67 66 64 61 58 56 54 50 47 45 45 45 45 44 42 39 38 36 35 35 35 36 37 39 41 44 47 49 52 54 55 56 56 56 56 55 54 53 52 49 47 47 48 51 53 56 56 56 56 56 56 58 60 59 58
56 57 57 58 59 59 60 62 63 64 65 67 67 67 67 67 67 67 67 67 67 67 67 67 68 68 69 69 69 68 68 66 64 62 60 57 55 53 50 48 47 47 47 47 46 43 41 39 38 37 36 35 35 36 38 40 42 45 48 51 54 57 58 58 58 59 58 58 56 55 54 52 49 48 49 50 53 57 58 58 57 58 59 61 61 59
59 60 61 62 62 62 63 64 66 67 69 70 70 70 70 70 70 70 70 70 70 71 70 70 70 70 70 69 68 67 65 63 61 60 58 56 55 53 51 49 48 48 49 48 47 45 43 41 41 40 39 37 36 36 37 39 41 44 46 49 53 56 59 60 61 61 61 61 60 59 58 56 53 51 50 50 50 53 56 58 59 60 61 62 63 62
63 64 65 65 66 66 67 67 68 69 70 71 72 72 72 72 72 72 71 71 72 71 70 70 69 68 66 65 64 63 62 60 60 59 58 56 55 53 51 51 50 50 50 50 48 47 46 44 43 43 42 40 39 38 38 39 42 44 46 48 50 54 58 61 62 63 63 63 63 63 61 60 58 55 53 52 50 50 51 54 57 59 61 63 62 61
63 65 65 66 66 67 67 68 68 69 70 71 71 71 71 70 70 70 69 69 68 67 66 65 63 62 62 61 60 60 60 59 59 58 57 56 54 53 52 52 52 52 52 51 50 49 48 47 46 46 45 43 42 42 41 41 42 44 46 48 50 52 55 59 62 64 65 65 66 66 65 64 63 61 58 56 53 50 49 50 53 56 59 60 60 60
58 59 60 61 61 62 62 63 63 64 65 66 66 66 66 65 65 64 64 63 62 61 60 59 58 58 58 58 58 58 58 58 58 57 56 55 54 54 54 54 54 54 54 53 52 51 50 49 49 48 48 47 46 45 45 45 44 44 45 48 51 53 54 57 59 62 65 67 68 68 68 68 67 66 64 61 58 54 51 50 52 56 59 61 62 62
50 51 52 53 53 54 54 55 55 56 57 58 58 59 59 59 58 57 57 57 56 56 56 55 55 55 56 56 56 56 56 56 56 55 55 54 53 54 54 55 56 56 56 55 54 53 53 52 51 51 50 50 49 48 48 48 48 47 46 47 51 55 57 57 58 60 63 66 68 69 70 70 70 70 69 67 64 60 57 55 54 56 59 62 66 68
46 47 48 48 48 49 49 50 51 51 52 52 53 54 55 55 55 55 55 55 55 55 55 54 54 54 55 55 55 55 54 54 54 54 54 54 54 54 55 56 57 57 57 57 56 56 55 54 54 54 53 53 52 51 51 51 51 51 50 49 50 54 57 59 60 60 61 63 66 69 71 71 72 72 72 71 70 67 64 61 60 60 59 61 64 69
45 46 47 47 47 48 48 49 50 51 52 53 53 54 55 55 56 56 56 56 56 56 56 55 55 55 54 54 53 53 53 53 53 53 53 54 54 55 55 56 57 57 58 58 57 57 57 56 56 56 56 55 54 54 54 54 54 54 53 52 52 53 55 59 62 62 62 63 65 67 70 71 72 73 73 73 73 72 70 68 67 66 65 64 65 69
45 46 46 47 48 48 49 50 51 52 53 54 54 55 55 55 56 56 56 56 56 56 55 54 54 53 53 52 52 51 51 51 52 53 53 54 54 55 56 57 58 58 58 58 58 58 58 58 58 57 58 57 57 56 56 56 56 56 56 56 55 55 55 58 61 64 64 64 65 67 69 70 71 72 73 74 74 74 74 73 72 71 71 71 72 72
45 46 47 48 48 49 50 51 51 52 53 53 53 52 52 53 53 53 53 53 52 51 51 50 50 49 49 48 48 48 48 49 50 51 52 53 54 55 56 57 58 58 59 59 59 59 59 59 59 59 60 60 59 59 59 59 59 59 59 59 58 58 58 58 61 64 65 65 65 66 68 69 70 71 72 73 74 75 75 75 76 76 76 77 77 77
46 46 47 47 48 48 48 49 49 49 49 49 48 48 47 47 47 47 47 47 46 46 46 45 45 45 45 45 45 46 46 47 48 49 51 52 53 54 55 56 57 58 59 60 60 61 61 62 62 62 62 62 62 62 61 61 62 62 62 62 61 61 61 61 61 63 66 66 66 66 67 68 69 70 71 71 72 74 74 75 76 77 79 79 79 79
45 45 45 45 45 45 45 45 45 45 45 44 43 43 42 41 41 40 41 41 41 42 42 42 42 43 43 44 45 45 47 48 49 50 51 53 54 55 56 58 59 60 61 61 62 63 64 64 65 65 65 65 65 65 64 64 65 65 65 64 64 63 63 63 62 63 65 67 67 67 68 68 68 69 70 71 71 73 74 75 75 75 77 79 80 80
42 42 42 42 42 42 42 43 43 43 42 42 41 40 39 39 38 38 38 39 39 40 41 42 43 44 45 46 47 48 49 51 52 53 54 55 56 57 58 59 60 61 62 63 64 65 66 66 67 67 67 67 67 67 67 67 67 67 67 66 65 65 65 64 64 64 65 67 68 68 69 69 70 70 70 70 70 72 73 75 75 75 75 77 78 80
38 39 39 40 40 40 40 40 41 41 41 41 41 41 40 40 40 40 40 40 41 42 43 44 45 46 47 48 50 51 52 53 54 55 56 57 58 59 60 61 62 63 64 65 65 66 66 67 67 67 67 67 66 66 66 65 65 66 66 65 65 65 65 65 65 65 66 67 68 69 69 70 70 71 71 71 71 71 72 74 75 76 76 76 77 79
Wind_Direction
233 235 236 236 236 236 236 236 236 236 237 238 240 241 242 244 245 247 248 250 251 251 252 254 256 258 261 263 265 268 270 273 275 277 278 278 277 275 273 273 274 276 278 279 280 281 282 283 284 284 284 284 284 284 284 284 284 285 286 288 289 289 287 286 286 285 284 283 282 282 281 280 278 277 276 276 275 274 273 271 262 249 245 241 243 255
231 233 234 235 235 236 236 236 235 235 236 237 239 240 242 244 245 246 248 249 250 251 252 254 256 258 261 263 266 268 271 274 276 276 276 274 272 272 273 274 275 276 277 279 280 282 283 283 284 284 283 283 283 283 284 286 289 292 295 299 299 296 293 292 291 290 288 287 286 285 284 281 279 277 276 274 273 272 265 259 253 241 240 243 247 252
229 230 232 234 234 235 235 235 235 235 236 237 239 241 242 243 244 245 247 248 249 251 252 254 256 259 261 264 267 270 273 274 274 273 271 270 270 271 272 273 274 275 277 278 280 281 282 283 282 281 281 281 281 285 290 296 301 304 308 308 296 287 288 291 294 294 292 290 288 287 285 283 281 278 276 272 272 271 258 247 243 237 239 245 249 249
227 228 230 232 233 234 234 234 235 236 237 238 239 240 242 243 244 245 246 247 248 251 253 254 257 260 262 265 268 271 272 271 270 269 267 267 268 269 270 272 273 276 278 279 281 281 281 281 280 280 279 280 284 293 301 302 303 300 292 276 262 262 270 279 287 292 296 294 291 287 285 283 282 279 275 270 267 265 255 246 240 235 236 241 245 245
225 226 227 229 230 232 233 234 235 236 236 237 238 239 241 242 243 244 244 245 247 250 253 255 258 260 263 266 268 269 269 267 265 264 264 266 267 269 270 273 275 277 279 280 281 280 280 279 279 278 278 279 282 283 278 276 277 273 265 256 253 254 258 267 276 283 291 297 299 293 285 282 281 277 273 266 255 249 246 243 241 237 235 238 243 244
224 225 226 228 229 230 232 233 234 234 235 235 236 237 239 241 242 243 244 245 247 250 253 256 258 261 264 265 266 265 264 262 260 260 262 265 268 271 273 275 277 279 279 280 280 279 278 277 277 277 276 270 249 230 234 238 247 256 258 256 256 258 259 263 269 275 282 292 303 302 289 282 282 278 271 260 251 247 242 240 240 237 235 236 241 242
224 224 226 227 229 230 232 232 232 233 233 234 235 237 239 241 242 243 244 245 247 250 253 256 259 261 262 262 262 261 258 257 257 259 262 265 268 272 275 277 279 280 280 280 280 278 277 277 277 277 274 261 234 219 221 224 228 239 249 255 257 260 262 262 264 269 276 284 295 303 296 284 280 278 272 259 254 253 243 238 240 238 234 235 241 240
225 225 226 227 229 230 231 231 231 232 233 233 235 237 239 240 241 242 243 244 247 250 253 256 259 259 258 258 257 254 253 256 259 261 263 266 269 273 276 278 280 281 281 280 279 278 277 277 276 274 268 254 234 218 216 224 227 230 240 250 252 254 258 261 262 263 269 277 284 290 286 273 272 274 271 255 246 251 243 235 237 237 234 234 241 242
225 225 225 226 226 228 228 228 229 230 231 232 234 235 237 238 240 241 243 244 247 250 253 255 255 254 254 252 250 249 252 257 261 264 266 269 271 273 276 278 280 281 280 280 279 278 278 276 274 270 260 249 235 216 213 224 229 230 237 244 245 248 254 259 261 258 260 268 273 276 269 256 259 267 267 252 236 238 237 233 233 235 234 235 242 246
224 223 224 224 224 224 225 226 227 228 229 230 233 234 235 236 238 240 241 243 246 248 250 250 250 250 249 247 246 248 253 258 262 266 270 271 273 275 277 279 280 281 280 280 279 277 277 275 272 266 256 251 241 221 216 227 234 235 237 241 241 244 251 256 257 255 255 259 264 272 269 249 244 253 258 249 235 233 232 230 231 235 236 238 242 247
225 224 224 224 223 223 224 225 227 227 228 230 233 234 234 234 236 238 239 241 243 244 244 244 244 246 245 243 245 249 253 258 263 268 271 273 275 277 280 280 280 280 279 278 277 275 274 272 269 265 256 250 244 231 223 228 236 238 236 237 241 246 251 251 252 251 251 253 257 268 270 250 238 246 251 248 239 236 233 229 229 232 237 241 242 243
227 227 226 223 222 223 224 225 225 227 229 232 233 233 233 233 234 236 237 238 239 239 238 239 240 241 242 243 247 250 253 258 264 268 270 272 275 278 281 282 281 280 278 277 276 274 272 270 268 265 260 252 245 239 232 229 234 237 233 233 240 248 249 246 247 249 248 249 252 261 266 252 239 242 249 250 245 238 231 228 227 228 232 238 241 242
227 227 225 222 221 221 221 221 223 226 228 230 230 232 232 232 233 234 235 235 235 234 235 236 237 237 240 244 248 251 255 260 264 266 268 270 274 278 280 281 280 278 277 275 274 272 270 269 267 265 263 258 249 244 240 234 232 235 234 232 236 241 244 243 244 245 244 246 250 256 261 253 241 241 246 249 247 238 231 226 224 225 225 230 237 240
225 223 222 220 219 218 217 218 221 223 225 226 227 229 230 231 232 232 232 231 230 231 232 233 234 235 239 244 249 253 257 260 262 263 266 268 272 277 279 280 279 277 276 274 272 270 269 269 269 267 265 263 257 249 245 241 236 235 234 233 234 236 240 242 242 241 239 242 247 251 254 248 241 241 246 248 244 237 234 228 225 225 225 228 236 240
219 218 217 217 215 214 214 215 218 220 220 221 223 225 227 227 228 228 227 225 225 227 229 230 232 235 238 244 249 254 258 261 262 263 265 268 271 275 277 278 278 277 276 273 272 271 271 272 272 273 271 269 265 257 251 247 242 239 236 233 233 233 236 241 242 240 237 237 241 243 242 239 235 238 243 245 239 231 232 232 231 233 231 231 237 242
214 211 210 210 210 211 212 214 216 218 218 219 220 222 223 224 224 224 223 223 224 226 228 229 231 235 239 244 251 256 260 262 263 264 265 267 270 272 274 276 277 276 276 274 274 273 273 274 274 275 275 272 268 263 257 252 247 242 239 236 233 231 233 239 242 242 239 237 237 235 234 232 230 233 238 240 234 225 223 226 230 235 234 233 236 238
212 207 206 206 207 210 211 213 216 217 218 218 219 220 222 222 222 223 222 223 225 226 228 230 233 237 241 246 252 257 260 262 263 264 265 266 267 270 272 274 276 277 277 277 277 277 277 278 278 277 276 273 270 265 260 256 251 245 241 237 235 232 232 234 239 241 239 238 237 232 229 230 229 230 234 237 234 224 218 218 222 226 227 232 236 235
210 207 206 206 208 210 211 213 216 217 217 217 217 218 220 221 222 223 224 225 227 228 230 233 236 240 244 248 253 256 259 262 264 265 266 265 265 268 271 273 276 278 280 280 280 281 281 281 281 280 279 276 272 267 262 259 255 250 244 239 236 233 231 230 233 237 237 236 235 231 227 228 230 230 232 236 236 226 218 216 219 221 223 231 235 231
208 208 206 208 211 212 212 213 215 217 217 217 217 217 219 221 223 226 227 228 229 230 231 234 238 241 245 248 252 255 259 261 263 265 265 264 265 268 271 274 278 281 282 283 283 282 283 283 284 284 281 278 274 271 266 261 257 253 249 243 237 233 231 229 230 234 234 232 231 228 225 226 229 231 233 236 235 227 221 219 218 218 221 229 231 227
209 208 207 210 212 212 213 215 216 217 217 218 218 219 221 222 224 228 231 231 232 233 234 236 239 242 245 248 252 256 259 261 263 264 264 265 266 269 272 276 280 283 284 284 284 284 284 286 287 285 283 281 279 276 270 265 260 255 251 246 240 234 231 228 227 230 230 228 228 227 224 224 226 230 234 236 231 225 221 222 223 221 222 227 228 226
210 209 209 211 212 213 214 215 217 218 218 217 218 220 221 223 225 229 232 233 234 235 236 238 241 243 246 250 253 256 259 261 263 263 264 265 267 270 274 279 282 285 286 286 286 286 287 288 289 288 287 286 283 279 274 268 262 256 252 248 242 238 234 228 225 227 227 226 227 227 223 223 224 225 229 233 231 226 221 221 226 228 227 227 227 226
210 210 211 212 213 214 215 216 217 218 218 218 219 221 222 223 226 229 231 233 235 237 238 239 241 244 247 250 253 256 259 261 262 263 264 266 268 272 276 280 284 286 287 287 287 288 289 291 292 291 291 290 285 280 275 269 264 259 254 250 244 240 236 228 223 224 226 226 227 226 223 223 224 222 224 229 231 230 226 223 228 233 232 231 229 227
211 212 212 213 214 215 216 218 218 217 218 220 221 222 223 225 227 229 231 234 236 238 240 242 244 246 249 252 253 256 259 261 262 264 265 266 269 273 277 282 285 287 287 287 288 289 291 292 292 292 292 290 285 279 275 270 266 260 255 251 245 239 235 229 222 220 224 227 227 225 223 223 225 223 223 226 230 231 230 227 228 234 236 234 230 227
211 211 211 213 215 215 217 218 218 217 219 221 223 224 225 227 229 230 232 234 237 239 242 244 247 249 251 253 254 257 259 262 263 264 265 267 271 275 279 283 286 286 286 287 287 288 290 291 291 291 291 288 282 278 275 270 267 261 255 251 245 239 233 228 220 218 222 226 224 223 222 223 226 226 224 226 229 231 232 231 232 236 240 237 232 230
210 210 210 213 215 215 216 218 219 219 220 222 224 226 227 229 230 232 234 236 238 241 243 246 248 249 251 253 255 257 259 261 263 264 266 270 273 276 280 283 285 285 285 285 286 287 288 288 288 288 288 285 279 275 271 268 266 262 257 251 245 239 232 226 220 218 222 226 223 220 221 222 225 228 226 226 229 231 231 233 236 238 240 239 236 233
209 209 210 212 214 215 216 217 218 219 220 221 224 227 229 230 231 234 237 238 240 242 244 246 247 249 250 253 255 257 260 262 264 266 268 271 273 276 280 283 284 284 284 284 284 285 285 286 286 286 285 280 274 269 266 265 264 262 257 251 245 239 232 226 220 218 221 224 222 219 219 220 222 227 228 225 227 230 230 230 230 228 231 234 235 234
209 209 210 211 213 215 216 216 218 219 219 219 221 225 228 230 231 233 236 239 240 241 243 245 247 249 251 254 256 258 261 263 265 266 268 270 273 276 281 283 284 284 284 283 283 283 284 284 284 283 280 275 268 262 260 259 259 259 256 251 246 239 233 227 221 219 220 221 220 219 219 219 220 225 228 226 227 229 228 227 225 223 225 229 230 232
210 210 210 213 215 217 218 219 220 221 222 222 223 226 229 231 232 234 236 239 241 242 244 246 249 251 253 255 258 260 262 264 264 265 267 269 273 278 281 283 283 283 283 282 282 282 282 283 282 280 274 268 262 256 254 254 254 255 254 250 246 240 234 228 223 219 219 219 218 218 219 220 220 224 228 228 227 229 228 226 225 222 224 227 228 230
212 211 212 214 216 219 221 222 223 224 225 226 228 230 233 235 236 238 239 241 244 246 248 250 252 253 255 257 259 260 261 262 263 264 266 270 275 279 282 283 283 282 281 280 280 280 281 282 282 278 269 261 256 250 249 249 250 250 250 248 244 240 234 229 224 220 219 218 218 218 219 221 222 225 229 229 228 228 228 227 227 224 224 229 232 232
212 212 214 217 218 220 222 224 225 225 226 227 229 231 234 236 239 240 242 243 245 247 249 251 252 254 256 257 258 259 260 261 263 265 268 272 276 279 281 282 281 280 279 278 278 279 281 282 282 277 265 255 250 246 245 245 246 246 246 244 241 238 234 230 225 221 219 219 220 220 220 222 223 225 229 230 229 228 228 228 228 226 226 231 236 237
213 214 215 218 220 222 224 226 227 228 228 229 231 233 234 237 239 241 243 244 246 248 250 252 253 254 256 257 258 259 261 262 263 266 270 273 276 279 280 280 279 278 277 276 277 278 280 281 281 274 262 253 247 244 243 243 242 243 244 241 238 235 234 231 228 224 222 221 223 223 223 223 225 226 229 231 231 229 228 227 227 229 229 231 236 239
216 217 218 220 222 223 225 228 230 231 231 232 233 235 236 238 240 242 243 245 247 249 251 253 254 254 256 257 258 259 260 262 264 268 272 275 277 278 278 277 277 276 275 275 276 277 278 280 278 271 261 253 246 242 241 241 241 241 241 240 236 233 232 231 229 228 226 225 226 227 226 225 225 227 230 231 232 231 230 228 227 230 231 232 234 237
219 220 221 223 224 226 227 229 231 233 234 234 235 236 237 238 240 243 245 247 249 251 252 253 254 255 256 257 258 258 259 262 266 270 273 275 276 276 275 275 275 274 273 273 274 275 277 279 277 270 262 255 248 243 240 240 239 239 239 239 236 233 231 230 229 228 227 227 227 228 229 226 225 227 229 231 231 232 232 230 228 229 231 232 233 236
220 221 223 224 226 227 228 230 231 233 234 235 236 236 238 240 242 244 246 249 251 252 253 254 255 256 256 256 257 258 260 263 267 271 273 274 274 273 273 273 273 272 270 270 271 273 277 279 278 272 265 259 252 245 241 240 239 238 237 238 236 234 231 230 230 229 228 227 227 229 230 229 226 226 227 229 230 231 231 231 229 229 232 232 231 234
224 224 225 227 228 229 231 232 233 234 235 236 238 239 240 242 244 246 248 250 252 253 254 255 255 255 256 256 257 260 262 265 268 270 271 271 271 271 271 270 269 268 267 267 268 270 274 278 280 276 270 264 258 251 245 242 241 240 238 237 236 235 233 231 231 230 229 228 227 228 230 231 229 227 226 227 228 229 230 230 230 230 231 231 229 230
227 228 228 229 230 231 233 235 236 237 238 239 240 242 244 245 247 249 250 252 253 254 254 255 255 255 256 257 260 262 264 266 268 269 269 268 268 269 269 267 265 264 263 263 265 267 270 274 278 278 275 270 264 259 253 247 245 243 241 240 238 236 235 233 233 232 231 229 228 228 229 231 232 231 229 228 228 227 229 230 231 231 231 232 231 231
230 230 231 231 232 233 234 236 237 238 239 241 242 244 246 247 249 250 252 253 254 254 255 255 256 257 258 260 262 264 266 267 267 267 267 266 267 267 267 264 261 259 259 260 261 263 265 268 272 276 277 274 270 266 260 255 250 248 245 243 241 239 237 236 235 234 233 231 230 228 228 228 230 231 232 232 230 228 229 231 231 232 234 236 236 236
232 233 233 234 235 236 237 239 240 240 242 243 244 245 247 249 250 251 253 254 255 255 256 256 257 258 260 262 263 264 265 266 266 265 265 265 266 266 264 261 257 255 256 258 259 261 262 264 268 271 273 275 274 271 267 263 258 254 251 247 245 243 240 239 237 236 236 234 231 230 228 228 228 229 231 233 233 232 232 233 234 235 237 239 240 241
235 235 236 237 237 238 240 241 243 244 245 246 247 249 250 251 252 252 253 254 255 256 256 257 258 260 261 262 263 263 264 264 264 264 264 264 264 263 261 258 255 253 254 257 259 260 260 262 265 267 269 271 272 272 270 267 264 260 257 253 249 246 244 242 240 239 238 236 234 232 230 228 227 227 228 230 233 234 235 235 236 238 239 240 242 243
237 238 239 240 241 242 243 244 246 248 249 251 251 252 253 254 254 255 255 256 256 257 257 258 259 260 260 261 261 262 262 262 262 263 263 262 261 260 258 256 253 252 253 255 257 258 258 260 262 264 266 267 269 270 270 268 266 263 260 258 255 252 248 246 244 242 240 239 237 235 232 230 228 227 227 227 229 232 235 235 236 238 238 239 240 241
239 240 241 242 243 244 245 246 248 249 250 252 253 254 254 254 255 256 256 257 257 257 257 258 258 259 259 260 260 261 261 261 261 261 261 260 259 256 254 253 252 251 253 254 255 256 257 258 259 261 263 264 265 266 267 267 267 265 262 259 257 255 253 250 247 245 243 241 240 238 237 234 231 228 227 227 226 227 231 234 236 237 236 235 236 239
239 241 242 242 244 245 246 246 247 248 248 250 251 252 253 253 254 254 255 256 256 257 257 257 258 258 259 260 260 261 261 260 260 260 259 258 256 254 252 251 251 251 252 254 254 255 257 258 258 259 260 262 263 265 266 266 267 266 263 260 258 256 254 252 250 248 247 245 243 241 240 239 236 232 229 228 227 225 226 231 235 236 235 234 235 238
239 240 241 241 242 242 243 244 245 245 246 247 249 250 251 253 253 254 254 255 256 256 256 257 257 257 258 258 259 259 259 259 259 259 258 256 254 253 251 250 250 251 252 254 254 255 256 257 257 258 259 260 262 263 264 265 266 266 264 262 259 256 254 252 251 250 249 248 246 245 243 241 240 237 233 231 229 227 226 229 234 236 235 234 235 238
237 239 239 240 240 240 241 242 243 245 246 247 248 249 251 252 253 254 254 254 254 254 255 255 255 255 256 256 257 258 259 259 259 258 257 256 254 253 252 251 251 252 253 254 255 255 256 256 257 257 258 259 260 261 262 263 265 265 264 262 261 259 256 254 252 250 250 250 249 248 246 244 243 241 239 235 232 229 228 230 235 237 237 237 237 238
237 238 239 240 241 242 242 244 245 246 247 248 249 250 251 251 252 252 253 253 253 253 254 254 254 255 255 256 257 257 257 258 258 257 257 256 255 254 254 253 253 253 254 255 255 256 256 257 257 258 259 260 260 261 262 263 264 265 265 264 262 260 259 256 253 250 249 249 250 250 249 248 246 244 243 240 237 233 231 231 235 239 240 240 240 240
238 239 241 243 244 245 245 246 247 248 249 249 250 250 251 251 251 252 252 252 253 253 253 254 254 255 255 255 255 256 256 256 256 256 256 256 256 256 255 255 256 256 257 257 257 257 258 258 259 260 261 262 262 263 264 264 265 265 265 265 263 261 260 258 255 252 249 249 249 249 250 250 249 248 246 245 243 239 235 234 235 239 241 242 242 242
243 243 244 245 246 247 248 248 249 249 249 249 249 250 250 250 251 251 252 252 253 253 253 253 253 254 254 254 254 254 255 255 255 256 256 256 256 256 256 257 258 259 259 260 260 261 261 262 262 263 264 264 265 265 265 266 266 266 265 265 264 263 262 259 257 253 250 248 248 248 249 249 249 249 248 248 247 245 242 238 237 239 242 243 244 244
247 248 248 248 248 248 248 248 248 248 248 248 248 248 249 250 250 251 251 251 252 252 252 252 252 252 253 253 254 255 255 256 256 257 257 258 258 259 259 260 260 261 262 263 263 264 265 266 266 267 267 267 267 267 267 267 267 266 266 265 265 264 263 260 257 254 251 249 248 248 248 248 248 248 248 248 247 247 245 243 240 240 241 244 245 245
248 248 248 248 248 247 247 246 246 246 246 246 247 247 248 250 251 251 252 252 253 253 254 254 254 255 256 257 258 258 259 260 260 261 261 262 262 263 263 264 264 265 266 267 267 268 269 269 270 270 270 270 270 269 269 268 267 266 265 264 264 263 262 260 257 253 251 249 248 247 247 247 247 247 246 246 246 246 246 245 243 242 241 242 244 244
245 245 245 244 244 244 244 244 244 245 245 246 247 247 248 249 250 251 252 253 254 255 255 256 257 258 259 260 261 262 262 263 263 264 264 265 265 266 267 268 268 269 270 270 271 272 272 272 272 272 272 271 271 270 269 268 267 266 264 262 261 260 259 258 256 252 250 249 248 247 247 247 247 246 246 245 245 245 245 245 245 244 243 242 242 242
243 243 243 243 243 243 243 243 244 244 245 245 246 246 247 248 248 249 250 251 252 253 254 255 257 257 258 260 260 261 262 263 264 265 266 267 268 269 270 271 271 272 273 273 274 274 274 274 274 274 273 272 272 271 270 268 267 266 264 262 260 258 256 255 254 252 250 248 248 248 247 246 245 245 245 245 244 244 244 244 244 244 243 242 242 241
Height
10594 10598 10602 10606 10609 10611 10614 10618 10622 10627 10630 10632 10634 10638 10640 10644 10652 10658 10664 10671 10674 10672 10668 10668 10670 10676 10684 10690 10691 10691 10691 10690 10689 10689 10689 10688 10688 10688 10689 10689 10690 10692 10694 10695 10695 10696 10698 10700 10701 10703 10704 10704 10705 10705 10705 10704 10704 10703 10703 10703 10703 10702 10701 10701 10701 10702 10702 10703 10704 10706 10707 10708 10708 10709 10710 10710 10711 10712 10713 10715 10717 10719 10721 10723 10724 10725
10588 10593 10596 10598 10600 10603 10606 10609 10614 10619 10623 10624 10627 10631 10635 10640 10647 10654 10659 10665 10666 10661 10659 10661 10666 10674 10682 10686 10686 10686 10685 10684 10683 10683 10682 10681 10681 10681 10683 10685 10686 10688 10689 10689 10690 10689 10691 10693 10695 10696 10697 10698 10699 10700 10701 10701 10701 10701 10701 10701 10701 10698 10695 10695 10696 10696 10697 10698 10699 10701 10702 10703 10703 10704 10706 10707 10707 10708 10709 10710 10712 10715 10717 10720 10721 10723
10582 10586 10588 10590 10593 10596 10598 10602 10608 10613 10617 10619 10622 10626 10630 10635 10641 10648 10653 10659 10657 10652 10652 10656 10663 10672 10679 10681 10680 10680 10679 10678 10677 10676 10675 10675 10676 10677 10679 10680 10681 10683 10684 10684 10685 10685 10685 10686 10688 10689 10690 10692 10694 10696 10699 10700 10699 10698 10698 10700 10700 10696 10690 10689 10690 10691 10692 10693 10694 10695 10696 10697 10698 10700 10702 10703 10704 10706 10707 10708 10709 10712 10714 10717 10718 10720
10574 10578 10580 10583 10586 10587 10590 10596 10603 10608 10612 10616 10618 10622 10624 10628 10635 10641 10648 10652 10649 10644 10644 10652 10661 10670 10675 10675 10674 10674 10673 10672 10671 10670 10669 10670 10672 10674 10674 10675 10676 10678 10679 10679 10679 10679 10678 10678 10680 10682 10685 10687 10691 10695 10698 10699 10699 10696 10693 10692 10690 10686 10682 10683 10686 10687 10688 10689 10689 10689 10690 10691 10692 10695 10697 10699 10703 10705 10706 10706 10707 10709 10711 10713 10714 10715
10566 10570 10572 10574 10576 10579 10584 10592 10600 10604 10608 10611 10613 10615 10617 10622 10629 10635 10641 10644 10642 10638 10639 10649 10659 10665 10670 10669 10667 10667 10666 10665 10664 10664 10665 10666 10667 10669 10670 10670 10671 10673 10674 10673 10673 10672 10672 10672 10673 10676 10679 10683 10688 10691 10693 10694 10695 10690 10682 10678 10675 10674 10677 10679 10681 10684 10685 10685 10685 10684 10684 10685 10686 10689 10693 10696 10699 10701 10702 10703 10704 10705 10707 10709 10710 10711
10559 10561 10563 10565 10569 10575 10582 10589 10595 10598 10601 10604 10606 10608 10610 10615 10622 10628 10634 10637 10636 10633 10637 10646 10654 10660 10664 10662 10660 10661 10660 10659 10658 10660 10661 10663 10663 10663 10664 10665 10666 10667 10667 10667 10667 10666 10666 10666 10667 10670 10673 10676 10678 10680 10682 10686 10686 10677 10669 10669 10670 10673 10676 10677 10678 10680 10682 10682 10682 10680 10680 10680 10682 10684 10688 10692 10695 10697 10698 10699 10699 10701 10703 10705 10706 10708
10552 10554 10556 10561 10567 10573 10579 10585 10589 10591 10594 10598 10600 10601 10604 10611 10617 10622 10627 10630 10631 10630 10635 10643 10650 10654 10656 10654 10655 10655 10653 10652 10653 10656 10658 10659 10660 10659 10659 10659 10660 10661 10661 10661 10660 10659 10659 10659 10661 10664 10666 10668 10670 10672 10676 10677 10672 10663 10659 10661 10665 10669 10671 10672 10674 10677 10679 10680 10679 10677 10676 10678 10680 10681 10684 10689 10693 10696 10696 10696 10696 10697 10699 10702 10703 10705
10546 10548 10552 10558 10564 10570 10576 10581 10583 10585 10589 10593 10593 10595 10601 10607 10611 10615 10620 10624 10626 10628 10633 10639 10644 10646 10648 10649 10650 10648 10647 10647 10649 10652 10654 10655 10656 10655 10654 10653 10654 10654 10654 10655 10654 10653 10653 10654 10656 10658 10659 10661 10663 10667 10670 10668 10660 10652 10650 10652 10655 10660 10662 10665 10669 10673 10676 10677 10675 10674 10672 10673 10677 10677 10679 10685 10690 10693 10693 10692 10692 10694 10696 10699 10701 10702
10538 10542 10548 10553 10560 10566 10572 10574 10575 10579 10584 10585 10585 10590 10597 10601 10605 10608 10613 10618 10622 10625 10630 10634 10637 10638 10641 10644 10644 10643 10644 10645 10644 10645 10648 10650 10650 10650 10649 10649 10648 10649 10648 10648 10648 10647 10647 10648 10650 10652 10653 10654 10656 10660 10660 10657 10655 10650 10646 10646 10648 10651 10654 10658 10663 10668 10672 10672 10671 10669 10668 10668 10671 10671 10674 10679 10684 10686 10687 10687 10689 10691 10694 10696 10698 10699
10529 10537 10542 10548 10556 10560 10563 10565 10568 10574 10577 10576 10578 10586 10593 10597 10599 10602 10608 10613 10618 10622 10626 10628 10630 10631 10635 10638 10638 10640 10642 10642 10640 10640 10642 10643 10644 10644 10645 10644 10644 10643 10643 10642 10642 10642 10642 10643 10645 10646 10648 10649 10650 10653 10652 10651 10652 10650 10646 10645 10645 10646 10649 10653 10657 10662 10666 10666 10666 10665 10664 10665 10666 10666 10668 10673 10677 10678 10680 10683 10686 10689 10691 10692 10694 10696
10528 10535 10540 10547 10551 10553 10556 10560 10565 10568 10569 10570 10576 10583 10588 10591 10593 10597 10603 10609 10614 10619 10621 10623 10624 10626 10629 10631 10634 10637 10639 10638 10636 10636 10636 10636 10637 10638 10638 10638 10638 10638 10638 10638 10638 10638 10638 10638 10639 10640 10642 10643 10644 10646 10647 10646 10646 10646 10645 10644 10642 10642 10645 10648 10651 10656 10659 10660 10661 10661 10661 10662 10662 10662 10663 10667 10670 10673 10676 10680 10683 10687 10689 10689 10690 10692
10529 10535 10539 10543 10544 10547 10553 10558 10561 10563 10566 10571 10576 10579 10583 10586 10589 10594 10600 10606 10611 10615 10616 10618 10620 10621 10623 10627 10630 10633 10634 10634 10633 10632 10631 10631 10632 10633 10633 10633 10633 10633 10633 10633 10633 10633 10633 10633 10634 10634 10636 10637 10638 10640 10640 10639 10639 10639 10639 10639 10638 10638 10640 10642 10645 10649 10652 10654 10656 10658 10659 10659 10659 10659 10660 10662 10666 10670 10674 10677 10680 10684 10686 10686 10686 10687
10527 10531 10534 10535 10538 10545 10551 10554 10557 10560 10565 10570 10573 10575 10579 10582 10587 10592 10598 10603 10608 10610 10611 10613 10615 10617 10620 10623 10625 10628 10630 10630 10629 10627 10626 10627 10628 10628 10628 10629 10628 10628 10628 10628 10628 10627 10627 10628 10628 10629 10630 10631 10633 10634 10633 10633 10633 10632 10632 10632 10632 10633 10635 10636 10638 10641 10645 10649 10652 10655 10657 10656 10655 10656 10659 10661 10664 10668 10672 10675 10678 10681 10682 10682 10682 10684
10522 10525 10528 10531 10536 10543 10547 10551 10555 10559 10563 10567 10569 10571 10574 10579 10585 10590 10595 10600 10603 10604 10606 10608 10611 10614 10618 10620 10621 10623 10625 10624 10623 10622 10622 10623 10624 10624 10625 10625 10624 10624 10623 10623 10623 10622 10622 10622 10622 10623 10623 10625 10627 10628 10627 10627 10626 10625 10624 10625 10626 10628 10630 10630 10632 10635 10640 10645 10649 10651 10653 10653 10652 10654 10657 10661 10663 10666 10670 10673 10677 10678 10679 10681 10681 10682
10516 10520 10525 10529 10535 10540 10544 10548 10550 10553 10556 10559 10561 10564 10568 10574 10580 10585 10590 10594 10597 10598 10600 10603 10607 10611 10615 10617 10617 10618 10618 10617 10616 10617 10618 10620 10621 10621 10621 10620 10620 10619 10618 10618 10617 10616 10616 10617 10617 10617 10617 10618 10620 10621 10621 10620 10619 10617 10616 10617 10618 10622 10625 10626 10627 10631 10636 10639 10642 10646 10648 10648 10648 10649 10654 10657 10660 10663 10667 10671 10675 10676 10678 10680 10679 10680
10511 10516 10521 10525 10530 10535 10538 10541 10543 10545 10549 10552 10556 10560 10564 10570 10574 10579 10584 10587 10590 10592 10595 10599 10604 10607 10612 10613 10613 10613 10612 10610 10611 10612 10613 10615 10616 10617 10616 10616 10615 10614 10614 10613 10612 10612 10612 10612 10612 10611 10610 10611 10612 10614 10613 10612 10611 10609 10608 10608 10611 10615 10619 10621 10623 10626 10630 10633 10635 10639 10642 10642 10642 10643 10648 10652 10656 10659 10662 10666 10670 10672 10674 10675 10673 10674
10507 10511 10515 10520 10525 10529 10532 10535 10537 10540 10544 10549 10554 10558 10562 10566 10570 10574 10578 10582 10585 10589 10592 10597 10601 10605 10608 10609 10609 10608 10605 10604 10605 10606 10608 10610 10611 10612 10612 10611 10611 10610 10609 10608 10607 10607 10607 10606 10606 10605 10604 10603 10603 10605 10604 10602 10601 10600 10600 10601 10603 10607 10612 10616 10618 10621 10625 10627 10630 10634 10635 10636 10636 10638 10643 10648 10651 10654 10656 10658 10660 10663 10665 10666 10665 10666
10502 10506 10510 10515 10520 10523 10527 10530 10533 10536 10541 10546 10550 10554 10558 10562 10566 10569 10574 10578 10582 10586 10590 10594 10598 10602 10604 10605 10605 10602 10599 10599 10600 10601 10602 10604 10606 10607 10607 10607 10606 10605 10604 10603 10602 10602 10601 10600 10599 10597 10596 10595 10594 10595 10594 10593 10591 10591 10592 10594 10596 10599 10604 10609 10612 10616 10620 10623 10625 10628 10629 10630 10632 10635 10640 10644 10646 10648 10650 10651 10651 10653 10655 10656 10658 10661
10496 10501 10507 10512 10516 10520 10523 10526 10530 10534 10538 10543 10547 10551 10555 10559 10563 10566 10570 10575 10579 10583 10588 10591 10594 10597 10600 10600 10599 10596 10594 10595 10596 10596 10596 10597 10600 10601 10602 10601 10601 10600 10599 10598 10597 10596 10595 10593 10592 10590 10588 10586 10585 10585 10584 10583 10582 10582 10584 10586 10588 10591 10597 10603 10607 10610 10614 10617 10619 10621 10622 10625 10628 10632 10636 10639 10640 10642 10645 10646 10646 10645 10646 10647 10650 10653
10493 10499 10505 10509 10513 10517 10520 10524 10527 10532 10537 10542 10547 10551 10554 10558 10561 10564 10567 10572 10575 10579 10584 10587 10590 10593 10594 10594 10593 10591 10590 10590 10590 10589 10590 10592 10594 10594 10595 10595 10595 10595 10594 10593 10592 10591 10589 10587 10585 10582 10580 10578 10577 10575 10574 10573 10572 10573 10574 10577 10580 10583 10589 10596 10600 10604 10607 10609 10613 10615 10617 10620 10624 10628 10631 10633 10634 10637 10640 10642 10642 10641 10640 10640 10642 10645
10491 10498 10503 10506 10510 10513 10518 10522 10526 10530 10535 10540 10545 10548 10551 10555 10558 10561 10564 10567 10570 10575 10579 10582 10585 10587 10588 10589 10588 10586 10584 10584 10583 10583 10585 10586 10587 10587 10588 10589 10589 10588 10587 10586 10585 10584 10583 10580 10577 10574 10572 10570 10569 10567 10565 10564 10564 10564 10566 10569 10572 10576 10581 10587 10593 10597 10600 10603 10607 10610 10613 10616 10619 10623 10626 10626 10628 10632 10634 10636 10638 10638 10638 10639 10639 10641
10490 10496 10501 10504 10507 10511 10516 10520 10524 10528 10533 10538 10541 10544 10547 10551 10555 10557 10559 10562 10566 10569 10573 10576 10579 10581 10583 10584 10583 10580 10578 10577 10576 10577 10580 10581 10580 10581 10582 10582 10583 10582 10581 10580 10578 10577 10576 10573 10570 10567 10564 10563 10561 10560 10558 10558 10557 10558 10560 10562 10565 10568 10572 10578 10584 10590 10595 10599 10602 10605 10609 10612 10615 10619 10620 10620 10622 10626 10628 10631 10634 10635 10636 10637 10638 10639
10488 10494 10498 10502 10505 10510 10514 10517 10522 10527 10531 10534 10537 10540 10544 10548 10550 10553 10556 10558 10561 10563 10567 10570 10573 10576 10577 10577 10575 10574 10572 10570 10570 10572 10574 10574 10574 10575 10576 10577 10577 10576 10575 10574 10572 10571 10569 10567 10565 10562 10558 10556 10555 10554 10553 10553 10553 10553 10554 10556 10558 10560 10564 10570 10577 10585 10592 10595 10596 10599 10603 10607 10610 10613 10614 10614 10617 10621 10624 10628 10631 10632 10633 10635 10636 10636
10486 10491 10495 10499 10503 10507 10511 10515 10519 10524 10528 10530 10533 10536 10540 10543 10546 10549 10551 10553 10556 10558 10562 10565 10568 10570 10570 10568 10568 10567 10565 10565 10566 10567 10567 10568 10569 10569 10571 10572 10572 10571 10570 10568 10567 10566 10564 10562 10560 10557 10554 10552 10551 10549 10549 10549 10549 10549 10550 10551 10553 10555 10558 10563 10570 10578 10584 10586 10588 10592 10597 10601 10605 10607 10608 10609 10613 10617 10621 10624 10627 10628 10629 10630 10631 10632
10483 10487 10492 10497 10501 10505 10509 10512 10516 10520 10524 10526 10529 10532 10535 10538 10542 10544 10545 10548 10551 10554 10557 10559 10562 10563 10562 10561 10562 10561 10560 10560 10561 10561 10562 10563 10563 10563 10565 10566 10566 10566 10565 10563 10562 10561 10559 10558 10556 10553 10550 10549 10547 10546 10545 10545 10546 10546 10546 10548 10549 10551 10553 10558 10564 10571 10576 10578 10582 10587 10591 10595 10599 10601 10602 10605 10608 10612 10616 10620 10623 10624 10625 10625 10626 10627
10480 10485 10489 10494 10497 10501 10504 10507 10511 10514 10517 10520 10523 10526 10529 10533 10536 10538 10540 10543 10546 10549 10551 10553 10555 10555 10555 10556 10556 10555 10555 10555 10556 10557 10558 10557 10556 10557 10559 10560 10560 10560 10559 10558 10557 10555 10554 10553 10551 10549 10546 10545 10544 10543 10543 10543 10543 10543 10544 10545 10546 10548 10550 10554 10559 10565 10569 10573 10577 10581 10585 10589 10593 10595 10597 10600 10603 10606 10610 10615 10617 10616 10616 10617 10618 10619
10477 10482 10486 10490 10492 10495 10497 10500 10503 10505 10508 10512 10516 10519 10521 10525 10529 10532 10534 10536 10539 10542 10545 10547 10548 10549 10550 10550 10550 10550 10550 10551 10552 10553 10552 10551 10550 10551 10553 10554 10554 10554 10553 10552 10551 10550 10549 10547 10546 10545 10543 10542 10541 10540 10540 10540 10540 10541 10541 10542 10544 10546 10548 10551 10555 10559 10564 10568 10572 10576 10580 10583 10586 10589 10592 10595 10598 10601 10605 10608 10609 10609 10609 10610 10611 10612
10473 10478 10482 10485 10488 10491 10494 10496 10499 10502 10505 10509 10512 10515 10517 10520 10524 10527 10528 10531 10533 10536 10539 10541 10543 10543 10544 10545 10545 10545 10545 10546 10547 10547 10547 10546 10544 10544 10547 10548 10548 10548 10548 10546 10545 10544 10543 10542 10541 10540 10539 10538 10538 10538 10537 10537 10537 10538 10539 10540 10541 10543 10545 10548 10551 10555 10559 10563 10567 10570 10574 10577 10581 10584 10587 10590 10593 10595 10599 10602 10603 10605 10606 10606 10606 10607
10469 10474 10478 10481 10484 10487 10490 10493 10496 10499 10503 10507 10510 10512 10514 10517 10520 10523 10524 10527 10529 10531 10534 10536 10537 10538 10539 10540 10540 10540 10540 10540 10541 10541 10541 10540 10539 10539 10540 10541 10542 10542 10541 10540 10539 10538 10537 10536 10535 10535 10534 10533 10534 10534 10534 10534 10534 10535 10536 10537 10539 10541 10543 10545 10547 10551 10554 10558 10561 10565 10568 10572 10575 10578 10581 10585 10588 10590 10592 10595 10598 10601 10601 10602 10602 10603
10465 10469 10473 10476 10480 10483 10486 10489 10491 10494 10498 10502 10504 10507 10510 10512 10515 10517 10519 10522 10525 10526 10528 10530 10531 10532 10532 10533 10534 10534 10534 10534 10535 10535 10535 10534 10533 10533 10534 10534 10535 10535 10535 10534 10533 10532 10532 10531 10530 10529 10529 10529 10529 10529 10530 10531 10531 10532 10533 10534 10536 10537 10539 10541 10544 10546 10549 10553 10556 10559 10563 10567 10569 10572 10575 10578 10582 10584 10586 10590 10594 10596 10597 10598 10598 10598
10461 10465 10469 10472 10475 10478 10481 10484 10487 10490 10494 10497 10499 10502 10505 10507 10509 10511 10513 10516 10518 10520 10521 10523 10525 10526 10526 10527 10527 10528 10528 10528 10528 10528 10528 10528 10527 10527 10528 10528 10528 10528 10528 10527 10527 10528 10527 10526 10524 10524 10523 10523 10524 10524 10525 10527 10527 10528 10529 10531 10532 10534 10535 10538 10540 10542 10545 10548 10551 10554 10558 10562 10564 10567 10569 10572 10576 10578 10581 10585 10589 10591 10593 10594 10594 10594
10459 10462 10466 10468 10471 10474 10477 10480 10482 10485 10489 10492 10495 10497 10500 10502 10504 10505 10507 10509 10512 10513 10514 10516 10518 10519 10520 10520 10521 10522 10522 10522 10521 10521 10521 10520 10520 10521 10522 10521 10521 10521 10521 10521 10522 10522 10522 10521 10520 10519 10518 10518 10519 10519 10520 10522 10523 10524 10525 10526 10528 10529 10531 10533 10535 10538 10540 10543 10546 10549 10552 10556 10559 10561 10563 10567 10570 10573 10576 10580 10584 10587 10588 10589 10589 10590
10455 10459 10462 10464 10467 10471 10474 10476 10478 10480 10483 10486 10490 10492 10495 10496 10498 10500 10501 10503 10505 10507 10508 10509 10510 10512 10514 10515 10515 10516 10516 10515 10515 10514 10514 10513 10513 10515 10516 10515 10515 10515 10514 10515 10516 10516 10515 10515 10514 10513 10513 10513 10513 10514 10515 10517 10518 10519 10520 10521 10523 10525 10527 10529 10531 10534 10536 10539 10542 10544 10547 10550 10553 10555 10558 10561 10565 10568 10571 10575 10579 10581 10581 10582 10584 10585
10451 10455 10458 10460 10464 10467 10469 10471 10473 10475 10478 10482 10484 10486 10487 10489 10491 10493 10494 10496 10498 10501 10502 10503 10504 10506 10508 10508 10509 10509 10510 10510 10509 10508 10507 10506 10506 10509 10510 10509 10509 10508 10508 10509 10510 10510 10509 10509 10508 10507 10507 10507 10508 10509 10510 10511 10513 10514 10515 10517 10518 10520 10522 10525 10527 10529 10532 10535 10537 10540 10542 10545 10548 10550 10553 10556 10559 10562 10565 10569 10572 10574 10575 10577 10579 10578
10448 10451 10454 10457 10460 10462 10465 10466 10468 10471 10474 10476 10476 10477 10480 10482 10484 10486 10488 10490 10493 10495 10496 10497 10498 10500 10501 10501 10502 10503 10504 10504 10503 10502 10501 10500 10500 10502 10504 10504 10503 10502 10502 10503 10504 10504 10504 10503 10502 10501 10501 10501 10502 10503 10504 10506 10507 10508 10510 10512 10514 10516 10518 10520 10522 10524 10527 10529 10532 10534 10537 10539 10542 10545 10548 10551 10554 10557 10560 10562 10565 10568 10569 10569 10570 10570
10443 10446 10449 10451 10454 10457 10459 10460 10462 10465 10467 10467 10468 10470 10473 10476 10478 10480 10482 10484 10486 10488 10489 10490 10492 10493 10494 10495 10495 10496 10497 10496 10496 10496 10495 10494 10494 10496 10498 10498 10497 10496 10496 10497 10498 10498 10498 10498 10497 10496 10495 10495 10496 10497 10498 10500 10502 10503 10505 10507 10509 10511 10513 10515 10517 10519 10522 10524 10527 10529 10531 10534 10536 10539 10542 10545 10548 10551 10554 10556 10559 10562 10563 10562 10562 10564
10436 10439 10442 10444 10447 10450 10452 10453 10455 10458 10459 10459 10461 10464 10466 10469 10471 10473 10475 10478 10480 10481 10483 10484 10485 10486 10487 10487 10488 10489 10489 10488 10488 10489 10488 10488 10489 10489 10491 10492 10491 10490 10490 10490 10492 10492 10493 10492 10492 10491 10491 10490 10491 10491 10492 10494 10495 10497 10499 10501 10503 10505 10507 10509 10511 10513 10516 10519 10522 10524 10526 10528 10531 10534 10537 10539 10542 10545 10548 10551 10553 10555 10556 10556 10557 10560
10430 10433 10435 10438 10441 10444 10446 10447 10448 10451 10451 10452 10455 10458 10460 10463 10465 10467 10469 10471 10472 10474 10475 10477 10477 10478 10479 10480 10481 10481 10480 10480 10481 10481 10481 10482 10482 10483 10484 10485 10485 10484 10483 10484 10485 10486 10487 10487 10486 10487 10486 10486 10486 10486 10487 10488 10489 10490 10492 10494 10496 10498 10500 10502 10504 10507 10510 10513 10516 10518 10520 10522 10525 10527 10530 10533 10536 10539 10542 10545 10548 10549 10550 10550 10552 10555
10424 10427 10429 10432 10435 10437 10439 10440 10441 10443 10444 10446 10449 10452 10454 10456 10458 10460 10462 10463 10464 10465 10467 10468 10469 10470 10471 10472 10473 10473 10473 10473 10474 10474 10474 10475 10475 10475 10476 10477 10478 10477 10477 10477 10479 10480 10480 10481 10481 10481 10481 10481 10482 10481 10482 10482 10483 10483 10485 10486 10488 10490 10492 10495 10497 10500 10502 10505 10509 10511 10513 10516 10518 10521 10524 10526 10529 10532 10535 10539 10541 10543 10544 10545 10547 10550
10418 10421 10423 10426 10429 10431 10433 10434 10435 10436 10437 10439 10441 10444 10446 10448 10449 10451 10454 10455 10455 10457 10458 10460 10461 10462 10463 10464 10465 10465 10466 10466 10466 10466 10467 10468 10468 10468 10469 10470 10470 10470 10470 10471 10472 10473 10473 10474 10474 10474 10474 10475 10476 10476 10476 10476 10476 10477 10478 10479 10480 10482 10484 10487 10489 10491 10494 10497 10501 10504 10506 10509 10512 10514 10517 10519 10522 10526 10529 10532 10534 10536 10538 10540 10541 10543
10413 10415 10417 10420 10422 10424 10426 10428 10429 10431 10431 10431 10433 10435 10437 10439 10440 10443 10445 10446 10447 10449 10450 10452 10453 10454 10455 10456 10457 10458 10458 10458 10458 10458 10459 10460 10460 10461 10462 10462 10462 10463 10463 10464 10465 10465 10466 10467 10467 10467 10467 10468 10469 10469 10470 10470 10470 10471 10471 10472 10473 10474 10475 10477 10480 10482 10485 10488 10492 10495 10498 10501 10504 10507 10509 10512 10515 10519 10522 10525 10527 10529 10531 10534 10535 10534
10407 10409 10411 10414 10416 10418 10420 10421 10422 10423 10423 10423 10425 10427 10428 10430 10433 10435 10437 10438 10439 10441 10443 10444 10446 10447 10448 10448 10449 10450 10450 10450 10450 10451 10451 10452 10453 10453 10454 10455 10455 10455 10456 10456 10457 10458 10459 10459 10459 10459 10460 10461 10461 10462 10462 10462 10463 10463 10464 10464 10464 10465 10466 10468 10470 10473 10476 10479 10482 10485 10488 10492 10495 10499 10502 10504 10507 10511 10515 10517 10520 10521 10524 10526 10527 10526
10402 10403 10405 10407 10409 10411 10412 10413 10414 10415 10416 10418 10419 10420 10422 10424 10426 10428 10430 10432 10433 10434 10435 10437 10438 10439 10439 10440 10440 10441 10441 10442 10443 10443 10444 10444 10445 10446 10447 10447 10448 10448 10448 10449 10449 10450 10450 10451 10451 10451 10452 10453 10453 10454 10454 10454 10455 10455 10456 10456 10456 10456 10457 10459 10462 10464 10466 10469 10472 10475 10478 10482 10485 10489 10493 10496 10499 10503 10507 10509 10511 10513 10515 10517 10518 10519
10396 10397 10398 10400 10402 10404 10405 10407 10408 10409 10411 10412 10414 10415 10416 10418 10420 10422 10424 10425 10425 10427 10428 10429 10430 10430 10431 10432 10432 10433 10434 10434 10435 10435 10436 10437 10438 10438 10439 10440 10440 10441 10441 10441 10441 10441 10442 10442 10442 10443 10443 10444 10445 10445 10445 10446 10446 10447 10447 10448 10448 10448 10449 10451 10453 10455 10457 10459 10461 10464 10467 10471 10475 10478 10482 10487 10490 10494 10498 10500 10502 10503 10506 10508 10510 10510
10390 10391 10392 10394 10396 10398 10399 10401 10402 10403 10404 10406 10407 10408 10410 10412 10413 10414 10415 10416 10417 10419 10420 10421 10422 10423 10424 10425 10426 10426 10427 10427 10427 10428 10428 10429 10430 10431 10431 10432 10432 10433 10433 10433 10433 10433 10433 10433 10433 10434 10434 10434 10435 10436 10436 10436 10437 10437 10438 10439 10439 10440 10440 10441 10443 10445 10447 10449 10451 10453 10456 10460 10464 10468 10471 10476 10480 10485 10489 10491 10492 10494 10495 10497 10497 10496
10383 10385 10387 10388 10390 10392 10393 10394 10395 10396 10397 10398 10399 10401 10402 10404 10405 10406 10407 10409 10410 10412 10413 10414 10415 10416 10417 10418 10419 10419 10419 10420 10420 10420 10421 10421 10422 10423 10423 10424 10424 10424 10425 10425 10425 10424 10424 10424 10425 10425 10425 10425 10426 10427 10427 10426 10427 10428 10428 10429 10430 10430 10431 10432 10433 10435 10437 10440 10442 10443 10446 10449 10453 10456 10460 10464 10468 10473 10478 10481 10483 10483 10484 10484 10484 10485
10377 10378 10380 10382 10383 10385 10386 10387 10388 10388 10389 10391 10393 10394 10395 10396 10397 10399 10400 10402 10403 10405 10406 10408 10409 10409 10410 10411 10411 10412 10412 10413 10413 10413 10414 10414 10415 10415 10415 10416 10416 10416 10416 10416 10416 10416 10415 10415 10416 10416 10416 10416 10416 10417 10417 10417 10417 10417 10418 10419 10419 10420 10421 10422 10423 10424 10427 10429 10432 10433 10435 10438 10441 10444 10448 10452 10456 10460 10465 10469 10472 10473 10473 10472 10473 10475
10370 10372 10373 10375 10376 10378 10379 10380 10381 10382 10383 10385 10387 10388 10389 10390 10392 10393 10394 10396 10397 10399 10400 10401 10402 10403 10404 10404 10405 10405 10406 10406 10406 10407 10407 10407 10407 10408 10408 10408 10408 10408 10407 10407 10407 10406 10406 10406 10406 10406 10406 10406 10406 10406 10407 10407 10407 10407 10407 10408 10409 10410 10410 10411 10413 10414 10415 10418 10421 10423 10425 10427 10430 10433 10436 10440 10443 10447 10451 10455 10459 10462 10462 10462 10463 10464
10363 10365 10366 10368 10370 10371 10372 10374 10375 10376 10378 10380 10381 10383 10384 10386 10387 10388 10389 10390 10391 10392 10394 10395 10396 10396 10397 10398 10398 10399 10399 10399 10399 10400 10400 10400 10400 10400 10400 10400 10399 10399 10398 10398 10397 10397 10396 10396 10395 10395 10395 10395 10395 10395 10396 10396 10396 10396 10396 10397 10398 10399 10399 10400 10402 10403 10405 10407 10409 10412 10414 10416 10419 10422 10425 10428 10431 10434 10438 10442 10446 10449 10451 10452 10452 10453
10356 10358 10359 10361 10363 10364 10366 10368 10369 10371 10373 10375 10377 10378 10380 10381 10382 10383 10384 10385 10386 10387 10388 10389 10390 10390 10391 10392 10392 10392 10392 10392 10392 10392 10392 10392 10392 10392 10392 10392 10391 10390 10389 10388 10388 10387 10386 10385 10384 10384 10383 10383 10383 10383 10384 10384 10384 10384 10384 10385 10387 10387 10388 10389 10390 10392 10394 10396 10398 10401 10403 10405 10408 10410 10413 10416 10420 10423 10426 10429 10433 10436 10439 10440 10441 10442
10351 10352 10354 10356 10357 10359 10361 10363 10365 10367 10368 10370 10371 10373 10374 10375 10377 10378 10379 10380 10381 10382 10383 10383 10384 10385 10385 10386 10386 10386 10386 10386 10385 10385 10385 10385 10385 10385 10384 10383 10382 10381 10380 10379 10378 10377 10376 10375 10374 10373 10372 10372 10372 10372 10372 10373 10373 10374 10374 10374 10375 10376 10377 10378 10379 10381 10383 10385 10387 10389 10391 10394 10397 10399 10402 10405 10408 10411 10414 10417 10420 10423 10426 10428 10430 10431